Location: Canet
(43.3261°N, 5.3723°E)
Time: 19:07:50
(UTC+00:00)

Cosmos 1455 - Pass Details

Date: 24 January 2021
Orbit: 499 x 521 km, 82.5° (Epoch: 08 March)

Event Time Altitude Azimuth Distance (km) Brightness Sun altitude
Rises 17:49:45 0° 350° (N) 2,636 5.8 -12.8°
Reaches altitude 10° 17:51:53 10° 350° (N) 1,748 4.8 -13.1°
Maximum altitude 17:55:43 80° 263° (W) 530 2.3 -13.8°
Drops below altitude 10° 17:59:33 10° 177° (S) 1,744 5.0 -14.5°
Sets 18:01:40 0° 176° (S) 2,629 5.9 -14.9°
